Hourly Data Report for October 21, 2015

All times are specified in Local Standard Time (LST). Add 1 hour to adjust for Daylight Saving Time where and when it is observed.

CLYDE RIVER A
NUNAVUT

70°29'09.000" N
68°31'01.000" W
26.50 m
2400804
71090
YCY

Download Data

Hourly Data (October 2015)
Hourly Data Report for October 21, 2015
Temp Definition
°C
Dew Point Temp Definition
°C
Rel Hum Definition
%
Wind Dir Definition
10's deg

Wind Spd Definition
km/h
Visibility Definition
km
Stn Press Definition
kPa
Hmdx Definition


Wind Chill Definition


Weather Definition


TIME
00:00 Legend Double Dagger -9.4 -15.8 60 25 15 16.1 100.77   -16 LegendNANA
01:00 Legend Double Dagger -9.3 -16.0 59 26 11 16.1 100.73   -15 LegendNANA
02:00 Legend Double Dagger -6.2 -15.5 48 28 5 16.1 100.71   -9 LegendNANA
03:00 Legend Double Dagger -7.8 -14.3 60 25 13 16.1 100.67   -14 LegendNANA
04:00 Legend Double Dagger -7.5 -14.6 57 26 8 16.1 100.64   -12 LegendNANA
05:00 Legend Double Dagger -6.4 -14.7 52 26 11 16.1 100.60   -11 LegendNANA
06:00 Legend Double Dagger -7.6 -14.5 58 26 18 16.1 100.56   -14 LegendNANA
07:00 Legend Double Dagger -8.5 -14.6 62 21 5 16.1 100.54   -11 LegendNANA
08:00 Legend Double Dagger -7.2 -14.6 56 29 5 16.1 100.49   -10 LegendNANA
09:00 Legend Double Dagger -8.6 -15.6 58 28 11 16.1 100.45   -14 LegendNANA
10:00 Legend Double Dagger -5.9 -11.8 63 27 13 16.1 100.42   -11 LegendNANA
11:00 Legend Double Dagger -4.1 -11.4 57 22 9 16.1 100.39   -8 Snow
12:00 Legend Double Dagger -5.2 -10.8 65 20 5 16.1 100.38   -7 LegendNANA
13:00 Legend Double Dagger -5.5 -10.3 69 19 5 16.1 100.36   -8 LegendNANA
14:00 Legend Double Dagger -4.7 -10.7 63 18 8 16.1 100.34   -8 LegendNANA
15:00 Legend Double Dagger -6.3 -10.9 70 26 18 16.1 100.29   -13 LegendNANA
16:00 Legend Double Dagger -6.4 -11.6 67 24 9 16.1 100.29   -11 LegendNANA
17:00 Legend Double Dagger -7.5 -12.3 69 25 8 16.1 100.27   -12 LegendNANA
18:00 Legend Double Dagger -8.3 -14.0 64 27 18 16.1 100.25   -15 LegendNANA
19:00 Legend Double Dagger -10.6 -14.9 71 LegendMM 8 16.1 100.26   -15 LegendNANA
20:00 Legend Double Dagger -13.2 -15.9 80 29 26 16.1 100.21   -23 LegendNANA
21:00 Legend Double Dagger -13.3 -16.6 77 25 13 16.1 100.20   -20 LegendNANA
22:00 Legend Double Dagger -12.5 -15.8 77 24 13 16.1 100.16   -19 LegendNANA
23:00 Legend Double Dagger -11.9 -16.2 71 26 21 16.1 100.13   -20 LegendNANA

Notes on Data Quality.

Legend

  • E = Estimated
  • M = Missing
  • NA = Not Available
  • ‡ = Partner data that is not subject to review by the National Climate Archives
Date modified: